{"data":{"norad_id":50485,"epoch":"2026-09-20T03:06:05.528160Z","epoch_age_seconds":57880,"freshness":"FRESH","line1":"1 50485U 21132S   26263.12923065  .00000039  00000+0  66785-4 0  9995","line2":"2 50485  87.9172 316.5823 0001381  99.5595 260.5693 13.18685491234502","mean_motion":13.18685491,"eccentricity":0.0001381,"inclination_deg":87.9172,"raan_deg":316.5823,"arg_perigee_deg":99.5595,"mean_anomaly_deg":260.5693,"bstar":6.6785e-5,"rev_number":23450,"period_min":109.19965449138,"perigee_km":1188.699949772,"apogee_km":1190.7901988009,"semimajor_km":7567.8820742865,"source":"CELESTRAK","updated_at":"2026-09-20T09:00:44.702644Z"}}